Weather History for Volk, WI

Change the Weather History Date:

Friday, November 4, 2011

  Actual Average Record
Temperature  
Mean Temperature 33 °F -  
Max Temperature 52 °F 46 °F 73 °F (2008)
Min Temperature 15 °F 33 °F 15 °F (2011)
Degree Days  
Heating Degree Days 32    
Moisture  
Dew Point 22 °F    
Average Humidity 94    
Maximum Humidity 100    
Minimum Humidity 44    
Precipitation  
Precipitation 0.00 in - - ()
Sea Level Pressure  
Sea Level Pressure 30.31 in    
Wind  
Wind Speed 1 mph (SE)    
Max Wind Speed 9 mph    
Max Gust Speed -    
Visibility 4 miles    
Events      
Averages and records for this station are not official NWS values.
T = Trace of Precipitation, MM = Missing Value Source: NWS Daily Summary

Daily Weather History Graph

Daily Weather History Graph

Search for Another Location

Airport:

Trip Planner

Search our weather history database for the weather conditions in past years. The results will help you decide how hot, cold, wet, or windy it might be!

Date:

Astronomy

Nov. 04, 2011 Rise Set
Actual Time 7:40 AM CDT 5:47 PM CDT
Civil Twilight 7:10 AM CDT 6:17 PM CDT
Nautical Twilight 6:36 AM CDT 6:51 PM CDT
Astronomical Twilight 6:02 AM CDT 7:25 PM CDT
Moon 2:49 PM CDT (11/4) 1:41 AM CDT (11/4)
Length of Visible Light 11h 07m
Length of Day
10h 06m
Waxing Gibbous, 69% of the Moon is Illuminated
Nov 4
Waxing Gibbous
Nov 10
Full
Nov 18
Last Quarter
Nov 25
New
Dec 2
First Quarter

Hourly Weather History & Observations

Time (CDT) Temp. Windchill Dew Point Humidity Pressure Visibility Wind Dir Wind Speed Gust Speed Precip Events Conditions
12:55 AM 24.3 °F - 24.3 °F 100% 30.30 in 10.0 mi Calm Calm - N/A   Clear
1:55 AM 21.7 °F - 21.4 °F 99% 30.30 in 10.0 mi Calm Calm - N/A   Clear
2:01 AM 21.2 °F - 21.2 °F 100% 30.30 in 2.5 mi Calm Calm - N/A   Clear
2:02 AM 21.2 °F - 19.4 °F 93% 30.30 in 2.0 mi Calm Calm - N/A   Clear
2:03 AM 21.2 °F - 19.4 °F 93% 30.30 in 1.8 mi Calm Calm - N/A   Clear
2:04 AM 19.4 °F - 19.4 °F 100% 30.30 in 1.5 mi Calm Calm - N/A   Clear
2:05 AM 19.4 °F - 19.4 °F 100% 30.30 in 1.2 mi Calm Calm - N/A   Clear
2:08 AM 19.4 °F - 19.4 °F 100% 30.30 in 1.0 mi Calm Calm - N/A   Clear
2:13 AM 19.4 °F - 19.4 °F 100% 30.30 in 1.2 mi Calm Calm - N/A   Clear
2:19 AM 19.4 °F - 19.4 °F 100% 30.30 in 1.5 mi Calm Calm - N/A   Clear
2:21 AM 19.4 °F - 19.4 °F 100% 30.30 in 1.8 mi Calm Calm - N/A   Clear
2:23 AM 19.4 °F - 19.4 °F 100% 30.30 in 2.0 mi Calm Calm - N/A   Clear
2:25 AM 19.4 °F - 19.4 °F 100% 30.30 in 2.5 mi Calm Calm - N/A   Clear
2:27 AM 19.4 °F - 19.4 °F 100% 30.30 in 3.0 mi Calm Calm - N/A   Clear
2:42 AM 19.4 °F - 19.4 °F 100% 30.30 in 2.5 mi Calm Calm - N/A   Clear
2:44 AM 19.4 °F - 19.4 °F 100% 30.30 in 2.0 mi Calm Calm - N/A   Clear
2:46 AM 19.4 °F - 19.4 °F 100% 30.30 in 1.8 mi Calm Calm - N/A   Clear
2:48 AM 19.4 °F - 19.4 °F 100% 30.30 in 1.5 mi Calm Calm - N/A   Clear
2:49 AM 19.4 °F - 19.4 °F 100% 30.30 in 1.2 mi Calm Calm - N/A   Clear
2:52 AM 19.4 °F - 19.4 °F 100% 30.30 in 1.0 mi Calm Calm - N/A   Clear
2:55 AM 20.5 °F - 20.3 °F 99% 30.30 in 1.0 mi Calm Calm - N/A   Clear
2:59 AM 21.2 °F - 21.2 °F 100% 30.30 in 1.2 mi Calm Calm - N/A   Clear
3:04 AM 21.2 °F - 21.2 °F 100% 30.30 in 1.0 mi Calm Calm - N/A   Clear
3:09 AM 21.2 °F - 21.2 °F 100% 30.30 in 1.2 mi Calm Calm - N/A   Clear
3:11 AM 21.2 °F - 21.2 °F 100% 30.30 in 1.5 mi Calm Calm - N/A   Clear
3:13 AM 21.2 °F - 21.2 °F 100% 30.30 in 2.0 mi Calm Calm - N/A   Clear
3:15 AM 21.2 °F - 21.2 °F 100% 30.30 in 2.5 mi Calm Calm - N/A   Clear
3:18 AM 21.2 °F - 21.2 °F 100% 30.30 in 2.0 mi Calm Calm - N/A   Clear
3:19 AM 21.2 °F - 19.4 °F 93% 30.30 in 1.8 mi Calm Calm - N/A   Clear
3:20 AM 19.4 °F - 19.4 °F 100% 30.30 in 1.5 mi Calm Calm - N/A   Clear
3:21 AM 19.4 °F - 19.4 °F 100% 30.30 in 1.2 mi Calm Calm - N/A   Clear
3:24 AM 19.4 °F - 19.4 °F 100% 30.30 in 1.5 mi Calm Calm - N/A   Clear
3:26 AM 19.4 °F - 19.4 °F 100% 30.30 in 1.8 mi Calm Calm - N/A   Clear
3:27 AM 19.4 °F - 19.4 °F 100% 30.30 in 2.0 mi Calm Calm - N/A   Clear
3:28 AM 19.4 °F - 17.6 °F 93% 30.30 in 2.5 mi Calm Calm - N/A   Clear
3:29 AM 19.4 °F - 17.6 °F 93% 30.30 in 4.0 mi Calm Calm - N/A   Clear
3:55 AM 20.5 °F - 20.3 °F 99% 30.29 in 10.0 mi Calm Calm - N/A   Clear
4:55 AM 20.1 °F - 19.9 °F 99% 30.30 in 10.0 mi Calm Calm - N/A   Clear
5:46 AM 17.6 °F - 15.8 °F 93% 30.32 in 2.5 mi Calm Calm - N/A   Clear
5:51 AM 17.6 °F - 17.6 °F 100% 30.32 in 3.0 mi Calm Calm - N/A   Clear
5:55 AM 17.2 °F - 17.1 °F 99% 30.32 in 5.0 mi Calm Calm - N/A   Clear
6:03 AM 17.6 °F - 17.6 °F 100% 30.32 in 2.5 mi Calm Calm - N/A   Clear
6:04 AM 17.6 °F - 17.6 °F 100% 30.32 in 2.0 mi Calm Calm - N/A   Clear
6:05 AM 17.6 °F - 17.6 °F 100% 30.32 in 1.5 mi Calm Calm - N/A   Clear
6:07 AM 17.6 °F - 17.6 °F 100% 30.33 in 1.2 mi Calm Calm - N/A   Clear
6:11 AM 17.6 °F - 17.6 °F 100% 30.33 in 1.0 mi Calm Calm - N/A   Clear
6:13 AM 17.6 °F - 17.6 °F 100% 30.33 in 1.2 mi Calm Calm - N/A   Clear
6:15 AM 17.6 °F - 15.8 °F 93% 30.33 in 1.5 mi Calm Calm - N/A   Clear
6:18 AM 15.8 °F - 15.8 °F 100% 30.33 in 1.2 mi Calm Calm - N/A   Clear
6:24 AM 17.6 °F - 17.6 °F 100% 30.33 in 1.0 mi Calm Calm - N/A   Clear
6:26 AM 17.6 °F - 17.6 °F 100% 30.33 in 1.2 mi Calm Calm - N/A   Clear
6:29 AM 17.6 °F - 15.8 °F 93% 30.33 in 1.5 mi Calm Calm - N/A   Clear
6:31 AM 15.8 °F - 15.8 °F 100% 30.33 in 1.8 mi Calm Calm - N/A   Clear
6:32 AM 15.8 °F - 15.8 °F 100% 30.34 in 2.0 mi Calm Calm - N/A   Clear
6:33 AM 15.8 °F - 15.8 °F 100% 30.34 in 2.5 mi Calm Calm - N/A   Clear
6:35 AM 15.8 °F - 15.8 °F 100% 30.34 in 3.0 mi Calm Calm - N/A   Clear
6:55 AM 18.1 °F - 18.0 °F 99% 30.34 in 10.0 mi Calm Calm - N/A   Clear
7:55 AM 17.6 °F - 17.6 °F 100% 30.35 in 10.0 mi Calm Calm - N/A   Scattered Clouds
8:56 AM 24.8 °F - 24.8 °F 100% 30.37 in 10.0 mi Calm Calm - N/A   Scattered Clouds
9:55 AM 32.0 °F 28.7 °F 32.0 °F 100% 30.38 in 10.0 mi ESE 3.5 mph - N/A   Scattered Clouds
10:55 AM 39.2 °F 35.9 °F 39.2 °F 100% 30.38 in 10.0 mi SSE 4.6 mph - N/A   Scattered Clouds
11:55 AM 48.2 °F - 35.6 °F 62% 30.36 in 10.0 mi SSE 8.1 mph - N/A   Scattered Clouds
12:55 PM 50.0 °F - 32.0 °F 50% 30.34 in 10.0 mi SE 9.2 mph - N/A   Partly Cloudy
1:55 PM 51.8 °F - 33.8 °F 50% 30.32 in 10.0 mi Variable 5.8 mph - N/A   Scattered Clouds
2:55 PM 51.8 °F - 33.8 °F 50% 30.30 in 10.0 mi Variable 3.5 mph - N/A   Scattered Clouds
3:55 PM 51.8 °F - 30.2 °F 44% 30.29 in 10.0 mi SE 6.9 mph - N/A   Scattered Clouds
4:55 PM 50.4 °F - 29.7 °F 45% 30.28 in 10.0 mi SSE 5.8 mph - N/A   Clear
5:55 PM 43.2 °F 39.7 °F 30.4 °F 61% 30.27 in 10.0 mi SE 5.8 mph - N/A   Clear
6:55 PM 35.1 °F - 32.2 °F 89% 30.28 in 10.0 mi Calm Calm - N/A   Clear
7:55 PM 31.1 °F 25.4 °F 30.4 °F 97% 30.26 in 10.0 mi SE 5.8 mph - N/A   Clear
8:55 PM 35.8 °F 29.4 °F 32.2 °F 87% 30.24 in 10.0 mi SE 8.1 mph - N/A   Clear
9:55 PM 34.3 °F 27.0 °F 32.7 °F 94% 30.23 in 10.0 mi SE 9.2 mph - N/A   Clear
10:55 PM 34.0 °F 26.6 °F 33.4 °F 98% 30.22 in 10.0 mi ESE 9.2 mph - N/A   Clear
11:55 PM 33.8 °F 27.0 °F 33.6 °F 99% 30.21 in 10.0 mi SE 8.1 mph - N/A   Clear